Miscellaneous Local Product
Issued by NWS Hastings, NE

Home | Current Version | Previous Version | Graphics & Text | Print | Product List | Glossary On
Versions: 1 2 3 4 5 6 7 8 9 10 11 12 13 14 15 16 17 18 19 20 21 22 23 24 25 26 27 28 29 30 31 32 33 34 35 36 37 38 39 40 41 42 43 44 45 46 47 48 49 50
360
AXUS43 KGID 261302
MISGRI

GID CWA HOURLY WEATHER ROUNDUP
NATIONAL WEATHER SERVICE HASTINGS NE
800 AM CDT TUE JUL 26 2016

NOTE: "FAIR" INDICATES FEW OR NO CLOUDS BELOW 12,000 FEET WITH NO
SIGNIFICANT WEATHER AND/OR OBSTRUCTIONS TO VISIBILITY.

...SOUTH CENTRAL NEBRASKA...

CITY           SKY/WX    TMP DP  RH WIND       PRES   REMARKS
GRAND ISLAND   SUNNY     69  63  81 S5        30.10S
HASTINGS       SUNNY     67  61  81 S5        30.11S
KEARNEY        MOSUNNY   64  61  88 CALM      30.11S
ORD            SUNNY     65  62  90 CALM      30.09R
YORK           SUNNY     68  66  94 CALM      30.10S
AURORA         SUNNY     67  66  97 CALM      30.10S
LEXINGTON      PTSUNNY   64  62  94 CALM      30.12R FOG
HOLDREGE       SUNNY     66  63  88 S5        30.11R
HEBRON         SUNNY     64  62  93 CALM      30.10R

...NEBRASKA PANHANDLE...

CITY           SKY/WX    TMP DP  RH WIND       PRES   REMARKS
CHADRON        SUNNY     72  61  68 S13       29.99R
ALLIANCE       SUNNY     65  64  97 S15       30.07S
SCOTTSBLUFF    CLOUDY    65  61  87 SE12      30.07R
SIDNEY         SUNNY     66  64  93 S14       30.12S

...WESTERN AND NORTH CENTRAL NEBRASKA...

CITY           SKY/WX    TMP DP  RH WIND       PRES   REMARKS
VALENTINE      SUNNY     72  63  73 S17G24    30.05S
AINSWORTH      SUNNY     68  64  85 S10       30.08S
ONEILL         SUNNY     69  63  81 S6        30.08F
BROKEN BOW     SUNNY     67  64  90 S6        30.10F
IMPERIAL       SUNNY     68  65  90 S10       30.11S
NORTH PLATTE   SUNNY     68  65  90 S9        30.11S
MCCOOK         SUNNY     67  64  90 SE3       30.11S

...EASTERN NEBRASKA...

CITY           SKY/WX    TMP DP  RH WIND       PRES   REMARKS
NORFOLK        SUNNY     69  64  84 CALM      30.09R
SO SIOUX CITY  SUNNY     68  64  87 SE5       30.07S
TEKAMAH        MOSUNNY   67  64  90 CALM      30.08S
COLUMBUS       SUNNY     66  59  77 CALM      30.09F
ALBION         SUNNY     66  63  87 CALM      30.10S
OMAHA EPPLEY   MOSUNNY   71  66  84 CALM      30.08S
OFFUTT AFB     SUNNY     68  68 100 E3        30.08S
MILLARD        SUNNY     71  68  92 SE3       30.09S
LINCOLN        SUNNY     70  66  87 CALM      30.10R
NEBRASKA CITY  SUNNY     68  68 100 CALM      30.10S
BEATRICE       SUNNY     67  64  89 CALM      30.09S
FALLS CITY     SUNNY     70  66  87 CALM      30.08R

...NORTHERN KANSAS...

CITY           SKY/WX    TMP DP  RH WIND       PRES   REMARKS
GOODLAND       CLOUDY    68  66  93 S14       30.14R FOG
HILL CITY      FOG       67  67 100 S5        30.11S VSB 3/4
NORTON         FOG       68  64  88 S5        30.11R VSB 1/4
SMITH CENTER   SUNNY     66  64  94 E5        30.10S
BELOIT         SUNNY     66  64  94 CALM      30.08S
HAYS           CLOUDY    70  63  78 SE8       30.10S VSB 1/4
RUSSELL        CLOUDY    70  69  97 E7        30.09R
CONCORDIA      SUNNY     67  64  90 SE5       30.09R
SALINA         MOSUNNY   72  68  87 N3        30.08S
TOPEKA         SUNNY     72  68  87 CALM      30.07S



USA.gov is the U.S. government's official web portal to all federal, state and local government web resources and services.